Location: Coed Ely
(51.5661°N, 3.4150°W)
Time: 20:04:52
(UTC+00:00)

USA 290 - Pass Details

Date: 28 January 2021
Orbit: 397 x 414 km, 73.6° (Epoch: 27 January)

Event Time Altitude Azimuth Distance (km) Brightness Sun altitude
Rises 18:48:51 0° 329° (NNW) 2,320 6.3 -17.4°
Reaches altitude 10° 18:50:57 10° 321° (NW) 1,456 5.4 -17.7°
Maximum altitude 18:53:57 40° 251° (WSW) 609 3.6 -18.2°
Drops below altitude 10° 18:56:56 10° 180° (S) 1,445 5.0 -18.6°
Sets 18:59:01 0° 173° (S) 2,299 6.0 -19.0°
